Regional Weather Roundup
Issued by NWS Burlington, VT

Home | Current Version | Previous Version | Text Only | Print | Product List | Glossary On
Versions: 1 2 3 4 5 6 7 8 9 10 11 12 13 14 15 16 17 18 19 20 21 22 23 24 25 26 27 28 29 30 31 32 33 34 35 36 37 38 39 40 41 42 43 44 45 46 47 48 49 50
000
ASUS41 KBTV 011710
RWRBTV
VERMONT REGIONAL WEATHER ROUNDUP
NATIONAL WEATHER SERVICE BURLINGTON VT
100 PM EDT TUE SEP 01 2015

NOTE: "FAIR" INDICATES FEW OR NO CLOUDS BELOW 12,000 FEET WITH NO
SIGNIFICANT WEATHER AND/OR OBSTRUCTIONS TO VISIBILITY.

* THESE REPORTS ARE NOT UNDER NWS QUALITY CONTROL AND/OR DO NOT
  REPORT WEATHER SUCH AS PRECIPITATION AND FOG.

VTZ001>019-011800-
_____VERMONT_____


CITY           SKY/WX    TMP DP  RH WIND       PRES   REMARKS
BURLINGTON     MOSUNNY   80  61  52 SE6       30.05F
MONTPELIER     SUNNY     75  56  51 VRB3      30.12F
MORRISVILLE    SUNNY     79  58  48 CALM      30.08F
ST. JOHNSBURY*   N/A     76  56  49 MISG      30.05F
LYNDONVILLE*   FAIR      75  53  45 CALM      30.10S
MIDDLEBURY*    FAIR      81  57  43 CALM      30.06F
RUTLAND*       SUNNY     77  57  50 NE5       30.09F
SPRINGFIELD    SUNNY     80  60  50 MISG      30.06F
HIGHGATE*      FAIR      78  57  48 S6        30.05S
NEWPORT*       FAIR      73  55  53 CALM      30.08F
BENNINGTON     SUNNY     80  60  50 VRB5      30.07F

_____LAKE CHAMPLAIN_____


CITY           SKY/WX    TMP DP  RH WIND       PRES   REMARKS

$$

NYZ007-026>031-035-052-083-011800-
_____NORTHERN NEW YORK_____


CITY           SKY/WX    TMP DP  RH WIND       PRES   REMARKS
PLATTSBURGH    SUNNY     75  65  70 SE8       30.04F
SARANAC LAKE   SUNNY     76  55  48 SW8       30.09S
MASSENA        SUNNY     80  64  58 S5        30.04F
OGDENSBURG*    SUNNY     81  70  69 SW8       30.04S
POTSDAM*       SUNNY     79  70  73 W3        30.05F
WATERTOWN      MOSUNNY   78  68  71 W14       30.06S HAZE
FT DRUM        SUNNY     79  67  66 W9        30.06S
ALBANY         MOSUNNY   82  64  54 N6        30.05F
GLENS FALLS    SUNNY     81  59  47 NE6       30.05F

$$
NHZ002-005-011-011800-
_____NEW HAMPSHIRE_____


CITY           SKY/WX    TMP DP  RH WIND       PRES   REMARKS
LEBANON        SUNNY     79  61  53 CALM      30.06F
KEENE          SUNNY     79  57  47 NW7       30.06F
MT WASHINGTON  MOSUNNY   61  16  17 NE7         N/A
PLYMOUTH       FAIR      78  56  46 W6        30.04F
WHITEFIELD     SUNNY     75  51  43 CALM      30.07F

$$

_____REGIONAL QUEBEC LOCATIONS_____


CITY           SKY/WX    TMP DP  RH WIND       PRES   REMARKS
MONTREAL       MOSUNNY   75  64  69 S10       30.03F
QUEBEC CITY    CLOUDY    72  57  60 SW7       30.02F
SHERBROOKE     SUNNY     72  55  56 SW8       30.06F

_____REGIONAL ONTARIO LOCATIONS_____


CITY           SKY/WX    TMP DP  RH WIND       PRES   REMARKS
OTTAWA         MOSUNNY   79  66  65 S7        30.03F

______KEY______
VSB  - VISIBILITY IN MILES
WCI  - WIND CHILL INDEX
HX   - HEAT INDEX
$$
NNNN


USA.gov is the U.S. government's official web portal to all federal, state and local government web resources and services.